| time (UTC) | temp F | wind direction | speed MPH | gust MPH | rain 1hr in | rain 24hr in | rain mn in | humidity % | barometer mb |
| 20260506214550 | 55 | 30 | 0.0 | 5.0 | 0.00 | 0.52 | 0.23 | 54 | 1012.9 |
| 20260506213053 | 55 | 344 | 2.0 | 8.0 | 0.00 | 0.52 | 0.23 | 55 | 1012.8 |
| 20260506211552 | 55 | 352 | 1.0 | 5.0 | 0.00 | 0.52 | 0.23 | 59 | 1012.8 |
| 20260506210054 | 55 | 335 | 2.0 | 8.0 | 0.00 | 0.52 | 0.23 | 57 | 1012.7 |
| 20260506204551 | 56 | 5 | 0.0 | 6.0 | 0.00 | 0.52 | 0.23 | 58 | 1012.5 |
| 20260506203054 | 55 | 344 | 2.0 | 9.0 | 0.00 | 0.52 | 0.23 | 55 | 1012.5 |
| 20260506201555 | 56 | 43 | 1.0 | 8.0 | 0.00 | 0.52 | 0.23 | 58 | 1012.3 |
| 20260506200051 | 55 | 344 | 2.0 | 5.0 | 0.00 | 0.52 | 0.23 | 56 | 1012.5 |
| 20260506194550 | 55 | 0 | 2.0 | 8.0 | 0.00 | 0.52 | 0.23 | 59 | 1012.6 |
| 20260506193051 | 56 | 344 | 4.0 | 9.0 | 0.00 | 0.52 | 0.23 | 57 | 1012.5 |
| 20260506191551 | 57 | 344 | 5.0 | 10.0 | 0.01 | 0.52 | 0.23 | 56 | 1012.1 |
| 20260506184558 | 58 | 328 | 3.0 | 12.0 | 0.01 | 0.52 | 0.23 | 57 | 1012.2 |
| 20260506183054 | 58 | 352 | 4.0 | 9.0 | 0.01 | 0.52 | 0.23 | 58 | 1012.4 |
| 20260506181559 | 58 | 325 | 3.0 | 10.0 | 0.00 | 0.51 | 0.22 | 55 | 1012.3 |
| 20260506180053 | 58 | 327 | 3.0 | 10.0 | 0.01 | 0.51 | 0.22 | 58 | 1012.3 |
| 20260506174553 | 58 | 352 | 3.0 | 9.0 | 0.01 | 0.51 | 0.22 | 57 | 1012.5 |
| 20260506173122 | 57 | 348 | 5.0 | 11.0 | 0.01 | 0.51 | 0.22 | 58 | 1012.4 |
| 20260506171601 | 56 | 344 | 3.0 | 10.0 | 0.01 | 0.50 | 0.21 | 55 | 1012.4 |
| 20260506170055 | 56 | 0 | 2.0 | 9.0 | 0.01 | 0.50 | 0.21 | 66 | 1012.5 |
| 20260506164557 | 55 | 345 | 2.0 | 8.0 | 0.01 | 0.50 | 0.21 | 61 | 1012.4 |
| 20260506163105 | 55 | 0 | 1.0 | 11.0 | 0.01 | 0.50 | 0.21 | 68 | 1012.6 |
| 20260506161617 | 55 | 294 | 2.0 | 8.0 | 0.01 | 0.49 | 0.20 | 68 | 1012.2 |
| 20260506160056 | 53 | 15 | 2.0 | 11.0 | 0.01 | 0.49 | 0.20 | 68 | 1012.3 |
| 20260506154554 | 53 | 306 | 3.0 | 8.0 | 0.02 | 0.49 | 0.20 | 73 | 1012.1 |
| 20260506153058 | 53 | 352 | 1.0 | 8.0 | 0.02 | 0.49 | 0.20 | 72 | 1011.9 |
| 20260506151552 | 51 | 355 | 3.0 | 10.0 | 0.01 | 0.48 | 0.19 | 71 | 1011.6 |
| 20260506150056 | 51 | 336 | 4.0 | 9.0 | 0.01 | 0.48 | 0.19 | 74 | 1011.9 |
| 20260506144554 | 51 | 346 | 1.0 | 11.0 | 0.01 | 0.47 | 0.18 | 75 | 1011.6 |
| 20260506143055 | 50 | 10 | 4.0 | 10.0 | 0.01 | 0.47 | 0.18 | 78 | 1011.3 |
| 20260506141553 | 49 | 352 | 5.0 | 9.0 | 0.01 | 0.47 | 0.18 | 76 | 1011.0 |
| 20260506140054 | 48 | 17 | 4.0 | 9.0 | 0.02 | 0.47 | 0.18 | 83 | 1011.0 |
| 20260506134556 | 48 | 350 | 2.0 | 6.0 | 0.01 | 0.46 | 0.17 | 86 | 1010.8 |
| 20260506133100 | 47 | 343 | 2.0 | 8.0 | 0.01 | 0.46 | 0.17 | 87 | 1010.8 |
| 20260506131601 | 47 | 0 | 4.0 | 9.0 | 0.02 | 0.46 | 0.17 | 87 | 1010.9 |
| 20260506130112 | 47 | 340 | 2.0 | 9.0 | 0.01 | 0.45 | 0.16 | 89 | 1010.7 |
| 20260506124601 | 46 | 338 | 2.0 | 5.0 | 0.01 | 0.45 | 0.16 | 88 | 1010.3 |
| 20260506123053 | 46 | 0 | 3.0 | 5.0 | 0.02 | 0.45 | 0.16 | 88 | 1009.9 |
| 20260506121556 | 46 | 346 | 1.0 | 5.0 | 0.01 | 0.44 | 0.15 | 87 | 1009.7 |
| 20260506120056 | 46 | 0 | 0.0 | 4.0 | 0.01 | 0.44 | 0.15 | 90 | 1009.9 |
| 20260506114550 | 46 | 0 | 2.0 | 6.0 | 0.02 | 0.44 | 0.15 | 90 | 1009.7 |
| 20260506113054 | 46 | 352 | 3.0 | 6.0 | 0.01 | 0.43 | 0.14 | 92 | 1008.7 |
| 20260506111553 | 46 | 331 | 3.0 | 6.0 | 0.02 | 0.43 | 0.14 | 93 | 1008.5 |
| 20260506110056 | 46 | 9 | 2.0 | 5.0 | 0.02 | 0.43 | 0.14 | 92 | 1008.8 |
| 20260506104553 | 46 | 313 | 2.0 | 8.0 | 0.01 | 0.42 | 0.13 | 92 | 1008.4 |
| 20260506103057 | 46 | 350 | 2.0 | 5.0 | 0.02 | 0.42 | 0.13 | 93 | 1008.8 |
| 20260506101558 | 46 | 342 | 2.0 | 5.0 | 0.01 | 0.41 | 0.12 | 93 | 1008.0 |
| 20260506100109 | 46 | 352 | 2.0 | 5.0 | 0.02 | 0.41 | 0.12 | 93 | 1007.6 |
| 20260506094553 | 46 | 29 | 2.0 | 5.0 | 0.02 | 0.41 | 0.12 | 93 | 1007.0 |
| 20260506093053 | 46 | 352 | 3.0 | 6.0 | 0.02 | 0.40 | 0.11 | 93 | 1007.8 |
| 20260506091551 | 46 | 9 | 4.0 | 7.0 | 0.02 | 0.40 | 0.11 | 93 | 1007.5 |
| 20260506090050 | 46 | 352 | 3.0 | 9.0 | 0.02 | 0.39 | 0.10 | 92 | 1007.7 |
| 20260506084620 | 46 | 352 | 5.0 | 11.0 | 0.02 | 0.39 | 0.10 | 92 | 1007.9 |
| 20260506083051 | 47 | 340 | 6.0 | 11.0 | 0.02 | 0.38 | 0.09 | 92 | 1007.6 |
| 20260506081600 | 47 | 352 | 4.0 | 10.0 | 0.02 | 0.38 | 0.09 | 94 | 1007.6 |
| 20260506073057 | 48 | 348 | 4.0 | 9.0 | 0.02 | 0.39 | 0.07 | 94 | 1007.3 |
| 20260506071552 | 48 | 341 | 3.0 | 8.0 | 0.02 | 0.39 | 0.07 | 94 | 1007.1 |
| 20260506061553 | 50 | 348 | 2.0 | 4.0 | 0.03 | 0.37 | 0.05 | 94 | 1007.0 |
| 20260506044702 | 51 | 343 | 1.0 | 3.0 | 0.02 | 0.33 | 0.01 | 94 | 1007.5 |
| 20260506043050 | 50 | 0 | 0.0 | 5.0 | 0.03 | 0.33 | 0.01 | 93 | 1007.7 |
| 20260506041601 | 50 | 360 | 2.0 | 4.0 | 0.02 | 0.32 | 0.00 | 93 | 1007.8 |
| 20260506040050 | 50 | 350 | 3.0 | 5.0 | 0.03 | 0.32 | 0.00 | 93 | 1008.0 |
| 20260506034623 | 51 | 342 | 2.0 | 5.0 | 0.03 | 0.31 | 0.31 | 93 | 1008.0 |
| 20260506033054 | 51 | 338 | 4.0 | 9.0 | 0.02 | 0.30 | 0.30 | 93 | 1008.3 |
| 20260506031603 | 52 | 351 | 0.0 | 8.0 | 0.03 | 0.30 | 0.30 | 93 | 1008.6 |
| 20260506030057 | 53 | 13 | 2.0 | 5.0 | 0.03 | 0.29 | 0.29 | 91 | 1008.6 |
| 20260506024554 | 56 | 44 | 2.0 | 8.0 | 0.03 | 0.28 | 0.28 | 90 | 1008.2 |
| 20260506023112 | 59 | 158 | 0.0 | 4.0 | 0.03 | 0.28 | 0.28 | 94 | 1008.1 |
| 20260506021553 | 59 | 0 | 0.0 | 2.0 | 0.03 | 0.27 | 0.27 | 94 | 1008.3 |
| 20260506020100 | 59 | 0 | 0.0 | 2.0 | 0.03 | 0.26 | 0.26 | 94 | 1008.4 |
| 20260506014554 | 59 | 240 | 0.0 | 3.0 | 0.03 | 0.25 | 0.25 | 94 | 1008.3 |
| 20260506013058 | 59 | 0 | 1.0 | 5.0 | 0.04 | 0.25 | 0.25 | 94 | 1008.1 |
| 20260506011615 | 59 | 259 | 0.0 | 4.0 | 0.04 | 0.24 | 0.24 | 94 | 1007.9 |
| 20260506004619 | 59 | 0 | 0.0 | 8.0 | 0.04 | 0.22 | 0.22 | 94 | 1007.9 |
| 20260506003113 | 59 | 0 | 0.0 | 2.0 | 0.04 | 0.21 | 0.21 | 93 | 1007.8 |
| 20260506001557 | 59 | 0 | 0.0 | 2.0 | 0.05 | 0.20 | 0.20 | 93 | 1007.5 |
| 20260506000051 | 59 | 273 | 0.0 | 4.0 | 0.05 | 0.19 | 0.19 | 93 | 1007.6 |
| 20260505234617 | 59 | 223 | 0.0 | 3.0 | 0.06 | 0.18 | 0.18 | 93 | 1007.8 |
| 20260505233053 | 59 | 0 | 0.0 | 5.0 | 0.07 | 0.17 | 0.17 | 93 | 1007.8 |
| 20260505231551 | 59 | 188 | 0.0 | 3.0 | 0.07 | 0.15 | 0.15 | 92 | 1008.3 |
| 20260505230050 | 59 | 0 | 0.0 | 4.0 | 0.08 | 0.14 | 0.14 | 92 | 1008.2 |
| 20260505224554 | 59 | 284 | 0.0 | 2.0 | 0.08 | 0.12 | 0.12 | 92 | 1008.3 |
| 20260505223053 | 59 | 0 | 0.0 | 2.0 | 0.07 | 0.10 | 0.10 | 91 | 1008.7 |
| 20260505221551 | 59 | 138 | 0.0 | 5.0 | 0.05 | 0.08 | 0.08 | 89 | 1008.7 |
| 20260505220103 | 60 | 0 | 1.0 | 10.0 | 0.03 | 0.06 | 0.06 | 85 | 1008.5 |